Location: Le Domaine
(47.0333°N, 76.5361°W)
Time: 21:45:33
(UTC-05:00)

Explorer 11/Cluster Stage 4 - Pass Details

Date: 22 November 2019
Orbit: 467 x 1259 km, 28.8° (Epoch: 13 December)

Event Time Altitude Azimuth Distance (km) Brightness Sun altitude
Rises 19:25:08 0° 219° (SW) 2,985 10.0 -30.3°
Enters shadow 19:28:31 - 191° (SSW) 2,362 9.1 -30.9°
Reaches altitude 10° 19:29:39 10° 180° (S) 2,297 - -31.1°
Maximum altitude 19:30:41 11° 168° (SSE) 2,313 - -31.3°
Drops below altitude 10° 19:31:46 10° 157° (SSE) 2,404 - -31.5°
Sets 19:37:09 0° 121° (ESE) 3,609 - -32.4°
